contact:dominique.lefevre@mio.osupytheas.fr, maurice.libes@osupytheas.fr, didier.mallarino@osupytheas.fr
Project:EMSO http://www.emso-fr.org/EMSO-France
Depth: 2436.0 m
Title:EMSO Ligure Ouest : Data MII capteur AQUADOPP
Date,Latitude,Longitude,X_East,Y_North,Z_Up,Amplitude_X,Amplitude_Y,Amplitude_Z,Batterie,SoundSpeed,Heading,Pitch,Roll,Pressure,TIS,Speed,Direction
, degrees North, degrees East, m.s-1, m.s-1,m.s-1, 1, 1, 1, Volt, m.s-1, degree, degree, degree, dbar, degree_C, m.s-1, degree
2020-02-15T00:04:03,42.805,6.029,0.027,0.017,-0.015,107.0,120.0,104.0,13.4,1505.2,326.0,-0.8,1.8,2470.311,13.3,0.031,57.8
2020-02-15T00:07:03,42.805,6.029,0.033,0.029,-0.021,108.0,123.0,103.0,13.4,1505.3,328.8,-0.7,1.9,2470.25,13.31,0.043,48.7
2020-02-15T00:10:03,42.805,6.029,0.007,0.021,-0.022,107.0,121.0,103.0,13.4,1505.3,327.9,-0.7,1.9,2470.242,13.31,0.022,18.4
2020-02-15T00:13:03,42.805,6.029,0.026,0.016,-0.026,106.0,121.0,103.0,13.4,1505.3,325.3,-0.7,1.8,2470.309,13.32,0.03,58.4
2020-02-15T00:16:03,42.805,6.029,0.011,0.011,-0.026,108.0,120.0,102.0,13.3,1505.3,326.0,-0.7,1.9,2470.28,13.32,0.015,45.0
2020-02-15T00:19:03,42.805,6.029,0.041,0.008,-0.009,106.0,120.0,102.0,13.4,1505.3,325.9,-0.7,1.8,2470.299,13.32,0.041,79.0
2020-02-15T00:22:03,42.805,6.029,0.012,-0.001,0.01,106.0,117.0,104.0,13.3,1505.3,324.2,-0.7,1.8,2470.281,13.32,0.012,94.8
2020-02-15T00:25:03,42.805,6.029,0.04,0.008,-0.022,107.0,119.0,103.0,13.4,1505.3,327.4,-0.7,1.8,2470.299,13.32,0.04,78.7
2020-02-15T00:28:03,42.805,6.029,0.019,0.01,-0.028,108.0,119.0,103.0,13.4,1505.3,324.9,-0.7,1.9,2470.229,13.32,0.021,62.2
2020-02-15T00:31:03,42.805,6.029,0.018,0.029,-0.016,107.0,117.0,104.0,13.3,1505.3,325.8,-0.7,1.8,2470.25,13.32,0.034,31.8
2020-02-15T00:34:03,42.805,6.029,0.025,0.005,-0.017,107.0,116.0,101.0,13.4,1505.3,323.3,-0.7,1.8,2470.245,13.32,0.025,78.7
2020-02-15T00:37:03,42.805,6.029,0.008,0.013,-0.008,109.0,118.0,102.0,13.3,1505.3,323.1,-0.7,1.8,2470.22,13.32,0.015,31.6
2020-02-15T00:40:03,42.805,6.029,0.039,0.029,-0.034,107.0,114.0,103.0,13.3,1505.3,327.7,-0.7,1.8,2470.205,13.32,0.048,53.4
2020-02-15T00:43:03,42.805,6.029,0.027,0.002,-0.01,107.0,120.0,103.0,13.3,1505.3,324.2,-0.7,1.8,2470.245,13.32,0.027,85.8
2020-02-15T00:46:03,42.805,6.029,0.011,0.019,0.007,107.0,122.0,103.0,13.3,1505.3,324.2,-0.7,1.8,2470.181,13.32,0.021,30.1
2020-02-15T00:49:03,42.805,6.029,0.031,0.019,-0.012,107.0,120.0,103.0,13.4,1505.3,328.3,-0.7,1.8,2470.278,13.32,0.036,58.5
2020-02-15T00:52:03,42.805,6.029,0.023,0.02,0.002,108.0,118.0,102.0,13.4,1505.3,326.4,-0.7,1.8,2470.238,13.32,0.03,49.0
2020-02-15T00:55:03,42.805,6.029,0.015,0.032,-0.009,107.0,119.0,104.0,13.4,1505.3,325.7,-0.7,1.8,2470.231,13.32,0.035,25.1
2020-02-15T00:58:03,42.805,6.029,0.008,0.009,-0.046,108.0,118.0,103.0,13.4,1505.3,324.9,-0.8,1.8,2470.264,13.32,0.012,41.6
2020-02-15T01:04:03,42.805,6.029,0.027,0.0,-0.003,107.0,113.0,105.0,13.4,1505.2,326.8,-0.7,1.9,2470.272,13.3,0.026,90.0
2020-02-15T01:07:03,42.805,6.029,0.015,0.011,-0.003,107.0,118.0,102.0,13.4,1505.3,326.5,-0.8,1.8,2470.292,13.31,0.018,53.7
2020-02-15T01:10:03,42.805,6.029,0.061,0.003,0.004,107.0,117.0,103.0,13.4,1505.3,328.6,-0.7,1.8,2470.286,13.31,0.061,87.2
2020-02-15T01:13:03,42.805,6.029,0.043,0.021,0.017,105.0,117.0,103.0,13.4,1505.3,327.0,-0.7,1.8,2470.267,13.32,0.047,64.0
2020-02-15T01:16:03,42.805,6.029,0.042,0.018,0.014,106.0,115.0,104.0,13.4,1505.3,327.7,-0.7,1.9,2470.255,13.32,0.045,66.8
2020-02-15T01:19:03,42.805,6.029,0.026,0.01,-0.016,107.0,117.0,104.0,13.3,1505.3,323.4,-0.7,1.8,2470.273,13.32,0.027,69.0
2020-02-15T01:22:03,42.805,6.029,0.03,0.007,-0.035,109.0,119.0,102.0,13.4,1505.3,325.2,-0.7,1.8,2470.247,13.32,0.03,76.9
2020-02-15T01:25:03,42.805,6.029,0.017,-0.012,-0.03,107.0,118.0,104.0,13.4,1505.3,328.6,-0.7,1.8,2470.218,13.32,0.02,125.2
2020-02-15T01:28:03,42.805,6.029,0.03,0.002,-0.002,107.0,115.0,103.0,13.3,1505.3,323.2,-0.7,1.8,2470.248,13.32,0.03,86.2
2020-02-15T01:31:03,42.805,6.029,0.041,-0.002,-0.026,106.0,114.0,103.0,13.4,1505.3,326.5,-0.7,1.8,2470.289,13.32,0.041,92.8
2020-02-15T01:34:03,42.805,6.029,0.006,-0.029,-0.021,106.0,117.0,103.0,13.4,1505.3,325.0,-0.7,1.9,2470.238,13.32,0.029,168.3
2020-02-15T01:37:03,42.805,6.029,0.025,0.021,0.014,107.0,115.0,103.0,13.4,1505.3,328.1,-0.7,1.8,2470.182,13.32,0.032,50.0
2020-02-15T01:40:03,42.805,6.029,0.047,0.005,0.006,107.0,113.0,103.0,13.4,1505.3,325.5,-0.7,1.8,2470.247,13.32,0.047,83.9
2020-02-15T01:43:03,42.805,6.029,0.041,0.004,-0.006,108.0,118.0,103.0,13.4,1505.3,326.2,-0.7,1.8,2470.22,13.32,0.041,84.4
2020-02-15T01:46:03,42.805,6.029,0.034,0.015,-0.012,106.0,116.0,104.0,13.3,1505.3,327.0,-0.7,1.9,2470.216,13.32,0.037,66.2
2020-02-15T01:49:03,42.805,6.029,0.022,0.0,-0.033,107.0,118.0,102.0,13.3,1505.3,325.7,-0.7,1.8,2470.244,13.32,0.022,90.0
2020-02-15T01:52:03,42.805,6.029,0.031,0.01,-0.022,109.0,115.0,103.0,13.4,1505.3,326.4,-0.7,1.8,2470.231,13.32,0.032,72.1
2020-02-15T01:55:03,42.805,6.029,0.04,0.017,-0.039,107.0,114.0,104.0,13.4,1505.3,323.3,-0.7,1.9,2470.253,13.32,0.043,67.0
2020-02-15T01:58:03,42.805,6.029,0.026,0.02,0.001,108.0,117.0,104.0,13.4,1505.3,324.9,-0.7,1.9,2470.249,13.32,0.032,52.4
2020-02-15T02:04:03,42.805,6.029,0.061,-0.005,-0.012,107.0,116.0,102.0,13.4,1505.2,326.9,-0.7,1.8,2470.207,13.3,0.061,94.7
2020-02-15T02:07:03,42.805,6.029,0.026,0.004,-0.02,107.0,116.0,103.0,13.3,1505.3,327.0,-0.7,1.8,2470.27,13.31,0.026,81.3
2020-02-15T02:10:03,42.805,6.029,0.017,-0.002,-0.011,107.0,116.0,102.0,13.4,1505.3,324.7,-0.7,1.8,2470.22,13.31,0.017,96.7
2020-02-15T02:13:03,42.805,6.029,0.021,0.001,-0.012,106.0,114.0,103.0,13.3,1505.3,323.7,-0.7,1.8,2470.271,13.32,0.021,87.3
2020-02-15T02:16:03,42.805,6.029,0.026,0.004,-0.021,105.0,112.0,103.0,13.4,1505.3,325.0,-0.7,1.8,2470.243,13.32,0.026,81.3
2020-02-15T02:19:03,42.805,6.029,0.019,0.012,-0.028,108.0,115.0,103.0,13.4,1505.3,325.0,-0.7,1.8,2470.213,13.32,0.022,57.7
2020-02-15T02:22:03,42.805,6.029,0.015,0.012,-0.004,108.0,115.0,103.0,13.4,1505.3,326.8,-0.7,1.8,2470.213,13.32,0.019,51.3
2020-02-15T02:25:03,42.805,6.029,0.033,-0.002,-0.009,107.0,117.0,102.0,13.4,1505.3,324.6,-0.7,1.9,2470.233,13.32,0.033,93.5
2020-02-15T02:28:03,42.805,6.029,0.039,0.011,0.024,106.0,116.0,103.0,13.4,1505.3,326.2,-0.7,1.8,2470.217,13.32,0.04,74.3
2020-02-15T02:31:03,42.805,6.029,0.018,0.019,0.0,106.0,116.0,103.0,13.3,1505.3,327.0,-0.7,1.8,2470.241,13.32,0.026,43.5
2020-02-15T02:34:03,42.805,6.029,0.035,0.035,-0.021,107.0,117.0,103.0,13.4,1505.3,323.9,-0.7,1.9,2470.245,13.32,0.049,45.0
2020-02-15T02:37:03,42.805,6.029,0.051,0.007,-0.012,107.0,116.0,103.0,13.4,1505.3,325.9,-0.7,1.8,2470.198,13.32,0.051,82.2
2020-02-15T02:40:03,42.805,6.029,0.03,0.012,-0.007,108.0,112.0,102.0,13.3,1505.3,326.7,-0.7,1.8,2470.211,13.32,0.032,68.2
2020-02-15T02:43:03,42.805,6.029,0.041,0.013,0.022,106.0,117.0,103.0,13.4,1505.3,327.5,-0.7,1.8,2470.194,13.32,0.043,72.4
2020-02-15T02:46:03,42.805,6.029,0.041,0.012,-0.008,106.0,117.0,103.0,13.4,1505.3,327.1,-0.7,1.8,2470.226,13.32,0.042,73.7
2020-02-15T02:49:03,42.805,6.029,0.061,0.007,-0.004,106.0,115.0,103.0,13.4,1505.3,326.3,-0.7,1.8,2470.189,13.32,0.061,83.5
2020-02-15T02:52:03,42.805,6.029,0.027,0.025,-0.001,107.0,115.0,103.0,13.3,1505.3,325.3,-0.7,1.8,2470.207,13.32,0.036,47.2
2020-02-15T02:55:03,42.805,6.029,0.035,-0.003,-0.005,106.0,115.0,104.0,13.4,1505.3,328.2,-0.7,1.8,2470.215,13.32,0.035,94.9
2020-02-15T02:58:03,42.805,6.029,0.035,0.008,-0.014,107.0,113.0,104.0,13.4,1505.3,324.4,-0.7,1.9,2470.198,13.32,0.035,77.1
2020-02-15T03:04:03,42.805,6.029,0.029,-0.001,0.01,106.0,112.0,104.0,13.4,1505.2,323.9,-0.8,1.8,2470.244,13.3,0.029,92.0
2020-02-15T03:07:03,42.805,6.029,0.041,0.02,0.024,105.0,114.0,103.0,13.4,1505.3,327.5,-0.7,1.8,2470.255,13.31,0.045,64.0
2020-02-15T03:10:03,42.805,6.029,0.036,-0.006,-0.017,106.0,111.0,103.0,13.3,1505.3,325.0,-0.7,1.8,2470.226,13.32,0.036,99.5
2020-02-15T03:13:03,42.805,6.029,0.028,0.016,-0.031,106.0,113.0,103.0,13.3,1505.3,323.2,-0.7,1.8,2470.238,13.32,0.032,60.3
2020-02-15T03:16:03,42.805,6.029,0.034,0.011,0.006,108.0,115.0,104.0,13.4,1505.3,327.8,-0.7,1.8,2470.247,13.32,0.035,72.1
2020-02-15T03:19:03,42.805,6.029,0.048,0.005,-0.026,106.0,115.0,103.0,13.4,1505.3,326.1,-0.7,1.8,2470.202,13.32,0.048,84.1
2020-02-15T03:22:03,42.805,6.029,0.02,-0.006,-0.039,106.0,114.0,103.0,13.4,1505.3,326.5,-0.7,1.8,2470.211,13.32,0.02,106.7
2020-02-15T03:25:03,42.805,6.029,0.041,0.002,-0.017,106.0,111.0,103.0,13.4,1505.3,323.1,-0.7,1.9,2470.247,13.32,0.041,87.2
2020-02-15T03:28:03,42.805,6.029,0.047,0.001,0.005,106.0,111.0,103.0,13.3,1505.3,323.7,-0.7,1.8,2470.169,13.32,0.047,88.8
2020-02-15T03:31:03,42.805,6.029,0.028,0.004,-0.012,106.0,111.0,103.0,13.4,1505.3,324.8,-0.7,1.8,2470.235,13.32,0.028,81.9
2020-02-15T03:34:03,42.805,6.029,0.029,0.021,-0.011,106.0,112.0,103.0,13.4,1505.3,327.1,-0.7,1.8,2470.193,13.32,0.035,54.1
2020-02-15T03:37:03,42.805,6.029,0.01,-0.004,-0.019,107.0,114.0,102.0,13.4,1505.3,325.5,-0.7,1.8,2470.198,13.32,0.01,111.8
2020-02-15T03:40:03,42.805,6.029,0.047,0.017,-0.004,106.0,114.0,102.0,13.4,1505.3,328.0,-0.7,1.8,2470.193,13.32,0.049,70.1
2020-02-15T03:43:03,42.805,6.029,0.045,0.001,0.015,106.0,113.0,103.0,13.4,1505.3,327.0,-0.7,1.8,2470.191,13.32,0.045,88.7
2020-02-15T03:46:03,42.805,6.029,0.015,0.013,-0.056,106.0,114.0,103.0,13.4,1505.3,323.7,-0.7,1.8,2470.191,13.32,0.019,49.1
2020-02-15T03:49:03,42.805,6.029,0.035,0.008,-0.006,108.0,112.0,102.0,13.4,1505.3,325.0,-0.7,1.8,2470.213,13.32,0.035,77.1
2020-02-15T03:52:03,42.805,6.029,0.034,0.004,-0.011,107.0,115.0,103.0,13.4,1505.3,327.0,-0.7,1.8,2470.203,13.32,0.034,83.3
2020-02-15T03:55:03,42.805,6.029,0.05,0.013,0.027,107.0,114.0,103.0,13.4,1505.3,326.5,-0.7,1.8,2470.179,13.32,0.051,75.4
2020-02-15T03:58:03,42.805,6.029,0.047,-0.011,-0.015,107.0,115.0,102.0,13.4,1505.3,325.2,-0.7,1.8,2470.188,13.32,0.048,103.2
2020-02-15T04:04:03,42.805,6.029,0.024,0.002,0.01,107.0,113.0,103.0,13.4,1505.2,326.4,-0.7,1.8,2470.276,13.3,0.024,85.2
2020-02-15T04:07:03,42.805,6.029,0.028,0.015,0.009,105.0,112.0,104.0,13.3,1505.3,328.1,-0.7,1.8,2470.229,13.31,0.031,61.8
2020-02-15T04:10:03,42.805,6.029,0.027,0.006,-0.012,107.0,111.0,103.0,13.4,1505.3,324.7,-0.7,1.8,2470.199,13.32,0.027,77.5
2020-02-15T04:13:03,42.805,6.029,0.023,-0.003,-0.013,106.0,110.0,102.0,13.4,1505.3,327.0,-0.7,1.9,2470.201,13.32,0.023,97.4
2020-02-15T04:16:03,42.805,6.029,0.034,0.016,-0.036,106.0,114.0,103.0,13.4,1505.3,328.2,-0.7,1.8,2470.185,13.32,0.037,64.8
2020-02-15T04:19:03,42.805,6.029,0.051,0.027,0.022,106.0,113.0,102.0,13.3,1505.3,324.5,-0.7,1.8,2470.132,13.32,0.057,62.1
2020-02-15T04:22:03,42.805,6.029,0.034,0.013,-0.056,107.0,113.0,104.0,13.4,1505.3,326.1,-0.7,1.8,2470.179,13.32,0.036,69.1
2020-02-15T04:25:03,42.805,6.029,0.034,-0.013,-0.039,106.0,112.0,102.0,13.4,1505.3,325.8,-0.7,1.8,2470.193,13.32,0.036,110.9
2020-02-15T04:28:03,42.805,6.029,0.023,0.008,-0.003,107.0,112.0,103.0,13.4,1505.3,325.6,-0.7,1.9,2470.168,13.32,0.024,70.8
2020-02-15T04:31:03,42.805,6.029,0.036,0.01,0.006,108.0,112.0,104.0,13.4,1505.3,326.3,-0.7,1.8,2470.157,13.32,0.037,74.5
2020-02-15T04:34:03,42.805,6.029,0.045,0.006,0.031,107.0,114.0,103.0,13.4,1505.3,326.9,-0.7,1.8,2470.225,13.32,0.045,82.4
2020-02-15T04:37:03,42.805,6.029,0.031,0.001,0.013,107.0,115.0,102.0,13.4,1505.3,327.8,-0.7,1.8,2470.185,13.32,0.031,88.2
2020-02-15T04:40:03,42.805,6.029,0.021,0.008,-0.015,106.0,114.0,104.0,13.4,1505.3,328.5,-0.7,1.8,2470.21,13.32,0.022,69.1
2020-02-15T04:43:03,42.805,6.029,0.042,0.024,0.0,106.0,116.0,103.0,13.3,1505.3,328.3,-0.7,1.8,2470.187,13.32,0.048,60.3
2020-02-15T04:46:03,42.805,6.029,0.044,0.003,-0.01,105.0,112.0,104.0,13.4,1505.3,324.9,-0.7,1.8,2470.169,13.32,0.044,86.1
2020-02-15T04:49:03,42.805,6.029,0.021,0.002,-0.014,107.0,112.0,103.0,13.4,1505.3,326.9,-0.7,1.8,2470.181,13.32,0.021,84.6
2020-02-15T04:52:03,42.805,6.029,0.022,0.002,-0.027,107.0,111.0,104.0,13.4,1505.3,327.8,-0.7,1.8,2470.209,13.32,0.022,84.8
2020-02-15T04:55:03,42.805,6.029,0.03,0.004,0.006,106.0,112.0,103.0,13.3,1505.3,324.0,-0.7,1.8,2470.187,13.32,0.03,82.4
2020-02-15T04:58:03,42.805,6.029,0.024,0.013,-0.004,107.0,113.0,102.0,13.4,1505.3,324.4,-0.7,1.8,2470.164,13.32,0.027,61.6
2020-02-15T05:04:03,42.805,6.029,0.015,0.012,-0.02,107.0,114.0,103.0,13.4,1505.2,324.2,-0.7,1.8,2470.222,13.3,0.019,51.3
2020-02-15T05:07:03,42.805,6.029,0.012,0.004,-0.039,107.0,113.0,104.0,13.3,1505.3,323.0,-0.7,1.8,2470.179,13.31,0.012,71.6
2020-02-15T05:10:03,42.805,6.029,0.033,0.006,-0.002,107.0,113.0,103.0,13.4,1505.3,328.3,-0.7,1.9,2470.165,13.32,0.033,79.7
2020-02-15T05:13:03,42.805,6.029,0.033,0.002,-0.017,105.0,113.0,103.0,13.4,1505.3,326.8,-0.7,1.9,2470.158,13.32,0.033,86.5
2020-02-15T05:16:03,42.805,6.029,0.04,-0.001,-0.005,107.0,111.0,102.0,13.4,1505.3,324.6,-0.7,1.8,2470.221,13.32,0.04,91.4
2020-02-15T05:19:03,42.805,6.029,0.033,0.017,-0.008,106.0,112.0,103.0,13.4,1505.3,323.7,-0.7,1.9,2470.161,13.32,0.037,62.7
2020-02-15T05:22:03,42.805,6.029,0.03,0.002,-0.004,107.0,113.0,103.0,13.4,1505.3,327.7,-0.7,1.8,2470.191,13.32,0.03,86.2
2020-02-15T05:25:03,42.805,6.029,0.048,0.001,-0.006,107.0,112.0,102.0,13.4,1505.3,326.7,-0.7,1.8,2470.158,13.32,0.048,88.8
2020-02-15T05:28:03,42.805,6.029,0.045,0.016,0.0,106.0,112.0,103.0,13.3,1505.3,324.1,-0.7,1.8,2470.16,13.32,0.047,70.4
2020-02-15T05:31:03,42.805,6.029,0.033,-0.006,-0.044,106.0,113.0,103.0,13.4,1505.3,326.9,-0.7,1.8,2470.165,13.32,0.033,100.3
2020-02-15T05:34:03,42.805,6.029,0.038,0.002,0.0,107.0,113.0,105.0,13.4,1505.3,323.3,-0.6,1.8,2470.113,13.32,0.038,87.0
2020-02-15T05:37:03,42.805,6.029,0.03,0.011,-0.03,107.0,112.0,103.0,13.4,1505.3,325.5,-0.7,1.8,2470.182,13.32,0.031,69.9
2020-02-15T05:40:03,42.805,6.029,0.04,-0.005,-0.004,107.0,112.0,103.0,13.4,1505.3,327.1,-0.7,1.8,2470.187,13.32,0.04,97.1
2020-02-15T05:43:03,42.805,6.029,0.03,-0.011,-0.006,106.0,113.0,102.0,13.4,1505.3,327.3,-0.7,1.9,2470.161,13.32,0.031,110.1
2020-02-15T05:46:03,42.805,6.029,0.009,0.023,0.002,107.0,110.0,103.0,13.4,1505.3,326.1,-0.7,1.8,2470.131,13.32,0.024,21.4
2020-02-15T05:49:03,42.805,6.029,0.043,0.01,0.003,106.0,111.0,103.0,13.4,1505.3,325.3,-0.7,1.8,2470.149,13.33,0.044,76.9
2020-02-15T05:52:03,42.805,6.029,0.035,0.008,-0.005,106.0,111.0,102.0,13.4,1505.3,324.2,-0.7,1.8,2470.168,13.33,0.035,77.1
2020-02-15T05:55:03,42.805,6.029,0.042,0.015,0.008,106.0,111.0,102.0,13.4,1505.3,323.3,-0.7,1.8,2470.143,13.33,0.044,70.4
2020-02-15T05:58:03,42.805,6.029,0.019,0.012,-0.009,106.0,109.0,104.0,13.4,1505.3,328.4,-0.7,1.9,2470.19,13.33,0.022,57.7
2020-02-15T06:04:03,42.805,6.029,0.028,0.014,0.015,106.0,111.0,103.0,13.4,1505.3,324.7,-0.7,1.8,2470.211,13.31,0.031,63.4
2020-02-15T06:07:03,42.805,6.029,0.015,0.021,-0.001,106.0,110.0,103.0,13.3,1505.3,323.7,-0.8,1.8,2470.179,13.31,0.025,35.5
2020-02-15T06:10:03,42.805,6.029,0.004,-0.007,-0.041,107.0,111.0,102.0,13.4,1505.3,324.5,-0.7,1.8,2470.206,13.32,0.008,150.3
2020-02-15T06:13:03,42.805,6.029,0.055,0.017,-0.01,106.0,113.0,102.0,13.3,1505.3,325.7,-0.7,1.8,2470.208,13.32,0.057,72.8
2020-02-15T06:16:03,42.805,6.029,0.046,0.027,0.015,107.0,112.0,103.0,13.4,1505.3,325.2,-0.7,1.8,2470.167,13.32,0.053,59.6
2020-02-15T06:19:03,42.805,6.029,0.02,0.011,0.011,106.0,111.0,102.0,13.4,1505.3,326.7,-0.7,1.8,2470.197,13.32,0.022,61.2
2020-02-15T06:22:03,42.805,6.029,0.032,0.01,-0.008,106.0,111.0,103.0,13.3,1505.3,326.5,-0.7,1.8,2470.157,13.32,0.033,72.6
2020-02-15T06:25:03,42.805,6.029,0.052,0.004,0.006,106.0,110.0,104.0,13.3,1505.3,323.3,-0.7,1.8,2470.163,13.32,0.052,85.6
2020-02-15T06:28:03,42.805,6.029,0.021,0.027,0.009,106.0,111.0,103.0,13.4,1505.3,326.8,-0.7,1.8,2470.168,13.32,0.034,37.9
2020-02-15T06:31:03,42.805,6.029,0.012,0.006,-0.022,106.0,112.0,103.0,13.4,1505.3,326.5,-0.7,1.9,2470.182,13.32,0.013,63.4
2020-02-15T06:34:03,42.805,6.029,0.034,0.009,0.0,107.0,112.0,103.0,13.4,1505.3,323.7,-0.7,1.9,2470.171,13.32,0.035,75.2
2020-02-15T06:37:03,42.805,6.029,0.043,0.006,0.054,106.0,110.0,102.0,13.3,1505.3,326.6,-0.7,1.8,2470.122,13.32,0.043,82.1
2020-02-15T06:40:03,42.805,6.029,0.016,0.006,-0.008,106.0,112.0,102.0,13.4,1505.3,326.4,-0.7,1.8,2470.218,13.32,0.017,69.4
2020-02-15T06:43:03,42.805,6.029,0.03,-0.007,-0.022,106.0,109.0,103.0,13.4,1505.3,323.0,-0.7,1.9,2470.17,13.33,0.03,103.1
2020-02-15T06:46:03,42.805,6.029,0.053,0.009,-0.009,106.0,110.0,103.0,13.3,1505.3,326.7,-0.7,1.8,2470.159,13.32,0.053,80.4
2020-02-15T06:49:03,42.805,6.029,0.041,0.02,0.031,105.0,110.0,104.0,13.4,1505.3,326.1,-0.7,1.8,2470.179,13.33,0.045,64.0
2020-02-15T06:52:03,42.805,6.029,0.036,0.0,0.005,107.0,110.0,102.0,13.4,1505.3,323.6,-0.7,1.9,2470.174,13.33,0.036,90.0
2020-02-15T06:55:03,42.805,6.029,0.032,-0.027,-0.015,106.0,111.0,102.0,13.3,1505.3,324.1,-0.7,1.8,2470.174,13.33,0.041,130.2
2020-02-15T06:58:03,42.805,6.029,0.035,0.01,-0.002,104.0,110.0,103.0,13.4,1505.3,323.8,-0.7,1.8,2470.207,13.33,0.036,74.1
2020-02-15T07:04:03,42.805,6.029,0.036,0.0,-0.004,106.0,110.0,103.0,13.3,1505.3,325.9,-0.8,1.8,2470.193,13.31,0.036,90.0
2020-02-15T07:07:03,42.805,6.029,0.041,0.014,0.007,106.0,110.0,102.0,13.4,1505.3,325.6,-0.7,1.8,2470.187,13.31,0.043,71.1
2020-02-15T07:10:03,42.805,6.029,0.026,0.017,-0.005,105.0,110.0,102.0,13.4,1505.3,325.9,-0.7,1.8,2470.206,13.32,0.031,56.8
2020-02-15T07:13:03,42.805,6.029,0.045,0.004,-0.021,105.0,109.0,102.0,13.4,1505.3,323.7,-0.7,1.8,2470.182,13.32,0.045,84.9
2020-02-15T07:16:03,42.805,6.029,0.029,0.024,-0.004,106.0,110.0,102.0,13.4,1505.3,326.6,-0.7,1.8,2470.192,13.32,0.037,50.4
2020-02-15T07:19:02,42.805,6.029,0.039,-0.003,0.014,104.0,110.0,102.0,13.3,1505.3,325.7,-0.7,1.8,2470.216,13.32,0.039,94.4
2020-02-15T07:22:02,42.805,6.029,0.017,0.004,-0.011,105.0,111.0,102.0,13.4,1505.3,324.7,-0.7,1.9,2470.179,13.32,0.017,76.8
2020-02-15T07:25:03,42.805,6.029,0.027,-0.022,-0.027,104.0,111.0,101.0,13.4,1505.3,325.8,-0.7,1.8,2470.205,13.32,0.034,129.2
2020-02-15T07:28:03,42.805,6.029,0.008,0.021,-0.022,105.0,109.0,102.0,13.4,1505.3,326.2,-0.7,1.8,2470.176,13.32,0.022,20.9
2020-02-15T07:31:03,42.805,6.029,0.037,0.033,-0.007,105.0,112.0,101.0,13.4,1505.3,327.8,-0.7,1.8,2470.192,13.33,0.049,48.3
2020-02-15T07:34:02,42.805,6.029,0.044,0.014,0.029,105.0,109.0,104.0,13.3,1505.3,327.7,-0.7,1.8,2470.163,13.32,0.046,72.4
2020-02-15T07:37:03,42.805,6.029,0.024,0.0,-0.04,104.0,110.0,101.0,13.3,1505.3,326.9,-0.8,1.8,2470.218,13.32,0.024,90.0
2020-02-15T07:40:02,42.805,6.029,0.038,0.012,0.0,105.0,110.0,101.0,13.4,1505.3,324.3,-0.7,1.8,2470.223,13.32,0.039,72.5
2020-02-15T07:43:02,42.805,6.029,0.042,0.01,0.002,106.0,111.0,102.0,13.3,1505.3,326.1,-0.7,1.8,2470.23,13.33,0.043,76.6
2020-02-15T07:46:02,42.805,6.029,0.02,0.019,-0.014,105.0,109.0,102.0,13.4,1505.3,324.7,-0.7,1.9,2470.17,13.33,0.027,46.5
2020-02-15T07:49:02,42.805,6.029,0.042,0.014,-0.013,106.0,109.0,102.0,13.3,1505.3,325.8,-0.7,1.8,2470.195,13.33,0.044,71.6
2020-02-15T07:52:02,42.805,6.029,0.016,0.004,-0.038,106.0,110.0,102.0,13.3,1505.3,326.5,-0.7,1.8,2470.229,13.33,0.016,76.0
2020-02-15T07:55:02,42.805,6.029,0.001,-0.005,-0.016,105.0,111.0,101.0,13.4,1505.3,325.4,-0.7,1.8,2470.204,13.33,0.005,168.7
2020-02-15T07:58:02,42.805,6.029,0.047,0.018,-0.031,106.0,112.0,102.0,13.4,1505.3,324.4,-0.8,1.8,2470.205,13.33,0.05,69.0
2020-02-15T08:04:02,42.805,6.029,0.021,0.022,-0.023,105.0,110.0,102.0,13.4,1505.3,325.9,-0.7,1.8,2470.273,13.31,0.03,43.7
2020-02-15T08:07:02,42.805,6.029,0.031,0.019,-0.001,104.0,110.0,103.0,13.4,1505.3,325.3,-0.7,1.9,2470.248,13.31,0.036,58.5
2020-02-15T08:10:02,42.805,6.029,0.024,0.018,-0.019,105.0,109.0,101.0,13.4,1505.3,325.6,-0.7,1.8,2470.261,13.32,0.03,53.1
2020-02-15T08:13:02,42.805,6.029,0.022,0.024,0.015,107.0,112.0,102.0,13.3,1505.3,323.0,-0.7,1.8,2470.252,13.32,0.032,42.5
2020-02-15T08:16:02,42.805,6.029,0.023,0.017,0.004,106.0,112.0,101.0,13.4,1505.3,327.2,-0.7,1.9,2470.214,13.32,0.028,53.5
2020-02-15T08:19:02,42.805,6.029,0.015,-0.002,-0.033,105.0,109.0,103.0,13.4,1505.3,327.6,-0.7,1.8,2470.212,13.32,0.015,97.6
2020-02-15T08:22:02,42.805,6.029,0.032,-0.001,-0.008,105.0,110.0,102.0,13.4,1505.3,325.1,-0.7,1.8,2470.219,13.32,0.032,91.8
2020-02-15T08:28:02,42.805,6.029,0.008,0.017,-0.023,104.0,110.0,101.0,13.4,1505.3,323.0,-0.7,1.8,2470.308,13.31,0.018,25.2
2020-02-15T08:31:02,42.805,6.029,0.045,0.01,0.004,105.0,110.0,103.0,13.3,1505.3,326.8,-0.7,1.8,2470.253,13.31,0.046,77.5
2020-02-15T08:34:02,42.805,6.029,0.017,0.01,-0.019,105.0,110.0,102.0,13.4,1505.3,324.0,-0.7,1.8,2470.288,13.32,0.019,59.5
2020-02-15T08:37:02,42.805,6.029,0.04,0.01,-0.004,104.0,108.0,103.0,13.4,1505.3,327.9,-0.7,1.9,2470.288,13.32,0.041,76.0
2020-02-15T08:40:02,42.805,6.029,0.035,0.022,0.008,105.0,110.0,101.0,13.4,1505.3,324.8,-0.7,1.8,2470.26,13.32,0.041,57.8
2020-02-15T08:43:02,42.805,6.029,0.01,-0.004,-0.036,105.0,109.0,103.0,13.3,1505.3,326.6,-0.7,1.8,2470.277,13.32,0.01,111.8
2020-02-15T08:46:02,42.805,6.029,0.008,0.012,-0.02,105.0,110.0,101.0,13.4,1505.3,328.0,-0.7,1.8,2470.257,13.32,0.014,33.7
2020-02-15T08:49:02,42.805,6.029,0.015,0.007,-0.019,105.0,109.0,102.0,13.3,1505.3,324.6,-0.7,1.8,2470.268,13.33,0.016,65.0
2020-02-15T08:52:02,42.805,6.029,0.016,0.005,-0.035,107.0,109.0,101.0,13.4,1505.3,323.5,-0.7,1.8,2470.289,13.33,0.016,72.6
2020-02-15T08:55:02,42.805,6.029,0.028,0.007,-0.017,104.0,110.0,101.0,13.3,1505.3,325.3,-0.7,1.8,2470.252,13.33,0.028,76.0
2020-02-15T08:58:02,42.805,6.029,0.004,0.028,-0.02,105.0,110.0,103.0,13.4,1505.3,323.7,-0.7,1.8,2470.258,13.33,0.028,8.1
2020-02-15T09:04:02,42.805,6.029,0.021,0.017,-0.024,105.0,108.0,102.0,13.4,1505.3,324.9,-0.7,1.9,2470.318,13.31,0.027,51.0
2020-02-15T09:07:02,42.805,6.029,0.032,0.002,-0.02,105.0,110.0,102.0,13.4,1505.3,326.9,-0.7,1.8,2470.284,13.31,0.032,86.4
2020-02-15T09:10:02,42.805,6.029,0.031,0.002,-0.022,106.0,109.0,102.0,13.4,1505.3,325.1,-0.7,1.8,2470.287,13.32,0.031,86.3
2020-02-15T09:13:02,42.805,6.029,0.033,0.014,-0.002,105.0,110.0,102.0,13.3,1505.3,324.8,-0.7,1.8,2470.294,13.32,0.035,67.0
2020-02-15T09:16:02,42.805,6.029,0.016,0.012,-0.023,105.0,110.0,103.0,13.3,1505.3,323.3,-0.7,1.9,2470.3,13.32,0.02,53.1
2020-02-15T09:19:02,42.805,6.029,-0.001,0.001,-0.036,106.0,110.0,102.0,13.4,1505.3,327.7,-0.7,1.8,2470.326,13.32,0.001,315.0
2020-02-15T09:22:02,42.805,6.029,0.015,0.02,-0.009,106.0,110.0,103.0,13.4,1505.3,326.9,-0.7,1.8,2470.284,13.33,0.025,36.9
2020-02-15T09:25:02,42.805,6.029,0.028,0.029,-0.01,105.0,111.0,102.0,13.4,1505.3,325.1,-0.7,1.8,2470.286,13.33,0.04,44.0
2020-02-15T09:28:02,42.805,6.029,-0.004,0.001,-0.03,107.0,111.0,102.0,13.3,1505.3,322.9,-0.7,1.9,2470.322,13.33,0.004,284.0
2020-02-15T09:31:02,42.805,6.029,0.029,0.016,-0.029,104.0,112.0,102.0,13.4,1505.3,325.3,-0.7,1.8,2470.292,13.33,0.033,61.1
2020-02-15T09:34:02,42.805,6.029,0.019,0.032,-0.017,105.0,111.0,103.0,13.3,1505.3,328.6,-0.7,1.8,2470.308,13.33,0.037,30.7
2020-02-15T09:37:02,42.805,6.029,-0.003,0.003,-0.026,105.0,110.0,102.0,13.4,1505.3,325.7,-0.7,1.8,2470.292,13.33,0.004,315.0
2020-02-15T09:40:02,42.805,6.029,0.018,0.021,-0.029,105.0,112.0,102.0,13.3,1505.3,323.2,-0.7,1.8,2470.254,13.33,0.027,40.6
2020-02-15T09:43:02,42.805,6.029,0.03,0.005,-0.031,105.0,110.0,102.0,13.4,1505.3,328.0,-0.7,1.9,2470.305,13.33,0.03,80.5
2020-02-15T09:46:02,42.805,6.029,0.005,0.026,-0.013,106.0,112.0,102.0,13.3,1505.3,325.2,-0.7,1.9,2470.336,13.33,0.026,10.9
2020-02-15T09:49:02,42.805,6.029,0.005,0.015,-0.038,104.0,110.0,103.0,13.4,1505.3,327.3,-0.7,1.8,2470.32,13.33,0.015,18.4
2020-02-15T09:52:02,42.805,6.029,0.021,0.018,-0.025,104.0,111.0,103.0,13.4,1505.3,325.3,-0.7,1.8,2470.318,13.33,0.027,49.4
2020-02-15T09:55:02,42.805,6.029,0.034,0.014,-0.004,107.0,111.0,102.0,13.3,1505.3,327.4,-0.7,1.8,2470.331,13.33,0.036,67.6
2020-02-15T09:58:02,42.805,6.029,-0.013,0.029,-0.053,105.0,112.0,101.0,13.4,1505.3,327.1,-0.7,1.8,2470.298,13.33,0.031,335.9
2020-02-15T10:04:02,42.805,6.029,0.015,0.018,-0.024,105.0,112.0,102.0,13.4,1505.3,324.3,-0.7,1.8,2470.373,13.31,0.023,39.8
2020-02-15T10:07:02,42.805,6.029,0.02,-0.006,-0.007,106.0,110.0,101.0,13.4,1505.3,322.9,-0.7,1.8,2470.336,13.31,0.02,106.7
2020-02-15T10:10:02,42.805,6.029,0.057,0.019,0.009,105.0,111.0,102.0,13.4,1505.3,326.7,-0.8,1.8,2470.332,13.32,0.06,71.6